Wind_Speed
63 64 64 63 63 63 63 63 63 62 62 62 61 60 60 59 58 56 54 52 50 47 45 43 41 40 38 36 34 32 31 28 26 25 24 23 23 22 22 23 24 24 24
69 69 70 69 69 68 68 68 68 67 66 65 64 64 63 63 62 60 58 56 53 51 48 46 44 42 40 38 36 33 32 30 27 25 24 23 23 22 22 22 23 23 24
71 70 68 67 67 66 66 67 68 69 69 69 68 67 66 65 64 63 61 59 56 53 51 49 47 45 42 40 37 34 32 30 28 25 23 22 22 22 22 22 22 23 24
64 61 57 55 54 54 53 54 57 60 63 66 68 69 69 68 66 64 63 61 58 55 53 50 48 46 44 42 38 35 33 31 29 26 24 23 21 21 21 21 22 22 23
51 47 45 43 42 41 40 41 42 44 48 52 57 62 65 67 68 67 65 63 60 57 54 52 49 47 44 42 39 36 33 31 29 27 24 23 21 21 20 20 20 21 22
42 40 39 37 35 34 31 30 31 32 34 36 39 45 51 58 63 66 66 65 62 59 56 53 51 48 45 43 40 37 35 32 30 28 25 24 22 21 20 19 19 19 20
40 39 38 36 35 33 32 31 31 30 30 29 30 31 34 39 46 54 60 63 63 62 59 55 53 49 46 43 41 38 35 33 30 28 26 24 22 21 20 19 19 19 19
41 40 40 39 38 36 35 34 34 33 32 32 31 31 31 32 35 39 46 53 57 60 59 57 54 51 47 44 42 38 35 33 31 28 26 24 22 20 19 19 19 19 19
44 43 42 41 41 40 39 38 36 35 34 33 32 31 31 30 31 32 35 41 47 53 56 56 55 52 49 45 42 38 36 33 31 29 27 24 22 20 19 19 18 18 19
46 44 44 44 43 42 41 39 38 37 36 34 33 31 30 29 29 30 31 34 39 45 50 53 54 52 50 47 42 39 36 33 31 29 26 24 22 21 20 19 18 18 19
48 47 46 45 44 42 41 40 38 37 35 34 32 30 29 28 28 28 29 29 32 39 44 48 51 51 50 47 43 40 37 33 30 28 26 24 22 21 20 19 19 19 19
45 45 44 43 42 41 39 38 36 35 34 32 30 29 27 26 26 26 26 26 29 35 40 44 47 49 48 46 43 40 37 33 30 28 25 23 22 21 20 19 19 19 19
41 40 40 39 37 36 35 34 34 33 32 30 28 26 25 24 23 23 23 24 27 32 37 42 44 46 46 45 43 41 37 33 30 28 25 23 22 21 20 20 20 20 19
36 35 34 33 32 31 30 30 30 29 29 28 26 24 23 22 21 21 22 23 27 32 36 40 42 45 45 44 42 40 36 33 30 28 26 24 22 22 21 20 20 19 19
31 29 28 27 27 27 26 26 26 26 25 25 24 22 21 19 18 19 20 22 27 33 35 39 41 43 44 42 40 38 35 32 30 28 25 23 23 22 21 20 20 20 20
27 24 22 20 20 20 20 21 22 23 23 22 21 20 18 17 16 16 19 21 26 32 34 37 38 40 42 40 38 36 33 31 29 28 26 24 23 22 21 21 21 21 21
25 19 16 13 11 12 14 16 17 19 20 20 19 17 16 15 14 14 16 21 26 32 35 36 37 39 40 39 36 34 32 30 28 27 26 25 23 23 22 22 22 22 22
23 16 11 7 4 5 8 12 14 16 17 17 17 16 14 13 13 13 16 22 27 33 36 37 37 37 38 36 34 33 31 29 29 27 26 26 25 25 25 24 23 23 22
23 17 11 6 2 2 6 9 12 15 16 17 16 14 12 12 13 15 19 24 28 34 37 37 37 37 37 35 34 33 31 30 29 28 27 27 27 26 25 24 23 23 22
26 20 15 10 6 6 8 11 14 15 16 16 15 13 12 14 15 19 22 25 29 35 37 37 35 35 35 34 33 32 30 30 29 29 28 28 27 26 25 24 23 22 22
27 24 19 15 12 10 11 13 15 16 16 16 15 15 15 18 19 20 23 27 31 34 34 34 33 34 34 32 32 32 31 31 30 30 29 28 27 26 25 24 23 22 21
27 25 21 18 15 14 14 15 16 17 18 18 18 19 20 21 21 23 27 29 31 33 32 32 32 33 32 32 32 31 30 30 30 29 28 27 26 25 25 23 22 21 20
28 25 23 21 19 18 18 18 19 20 20 21 22 23 24 25 26 27 28 29 30 31 32 32 32 32 32 32 31 31 30 30 29 28 27 26 24 24 23 22 21 20 20
29 26 24 23 22 21 21 22 23 24 24 24 26 26 27 28 28 29 30 30 29 30 31 31 31 32 31 30 30 29 28 28 27 26 25 24 23 22 21 20 20 19 19
30 28 27 25 24 24 24 24 25 25 26 27 27 28 28 28 28 29 29 29 29 30 30 30 30 29 28 28 27 27 26 26 25 23 22 21 21 20 19 19 19 19 19
30 28 27 26 25 25 25 25 26 26 26 27 28 29 28 28 29 30 30 31 30 29 28 28 27 27 26 25 24 24 23 22 21 20 20 19 19 18 18 18 18 19 20
Wind_Direction
289 286 283 279 276 274 272 271 269 267 265 263 262 260 260 259 258 257 256 255 256 257 259 260 262 264 267 269 272 274 277 279 279 280 279 275 268 264 257 252 247 245 243
290 288 285 282 278 275 271 269 267 265 264 262 261 259 258 258 257 256 256 255 254 254 255 256 258 260 263 265 267 270 273 275 276 277 276 273 267 262 256 251 246 243 243
292 290 287 284 281 278 274 270 266 264 262 260 259 258 257 256 256 255 254 253 252 252 252 253 254 256 258 260 262 265 267 270 272 273 273 269 265 259 254 250 247 245 242
294 292 289 286 284 281 277 273 268 264 261 259 257 256 255 254 254 253 252 252 251 250 249 249 250 251 253 256 257 259 262 265 267 269 268 266 262 259 255 251 248 245 243
295 293 291 289 287 284 281 277 272 268 265 262 259 256 255 254 253 252 251 249 248 247 246 245 246 247 248 250 252 253 256 260 262 264 264 261 259 258 255 250 248 247 245
294 291 290 288 286 284 281 279 277 274 271 268 264 261 258 255 252 250 249 247 246 244 243 241 242 243 244 246 247 248 251 255 258 260 260 257 256 255 254 250 248 247 243
292 290 287 285 284 282 279 277 275 273 273 272 271 268 264 260 255 251 248 245 243 242 240 238 238 239 240 241 242 245 247 250 252 254 255 254 252 252 252 249 247 245 241
289 287 283 282 280 279 277 275 274 273 272 271 271 269 267 263 259 255 249 245 241 238 236 235 234 234 235 236 239 240 241 244 247 249 250 249 249 249 247 245 243 243 242
288 285 282 280 278 276 274 272 272 271 271 270 269 268 266 263 261 258 252 245 239 234 231 230 230 230 230 232 234 235 236 239 242 244 244 245 243 243 244 242 241 241 240
287 284 281 279 277 275 272 270 268 268 268 267 267 266 264 263 260 258 254 245 237 230 225 224 224 225 226 227 228 230 231 234 236 237 239 240 240 241 240 237 235 235 236
286 283 280 278 276 274 271 268 266 264 264 264 262 261 261 260 259 257 250 243 234 223 218 217 217 218 220 222 224 224 226 228 231 234 236 236 236 236 235 231 228 229 231
289 284 281 278 275 272 269 265 262 260 258 258 256 256 257 257 257 255 247 239 228 217 212 209 210 212 214 217 218 219 221 224 227 229 230 231 233 231 230 228 225 224 224
294 288 283 279 274 270 266 261 257 255 253 251 251 251 252 254 254 251 242 234 223 211 203 201 204 206 208 211 213 215 217 219 222 223 224 226 227 227 228 224 221 219 220
300 293 287 280 274 268 263 258 253 249 246 244 244 245 247 250 250 244 234 227 215 203 197 197 199 201 203 205 207 209 212 215 217 218 220 221 222 220 218 217 217 214 211
307 299 292 283 274 265 259 253 247 241 238 237 237 237 240 242 241 236 229 221 207 195 192 191 193 196 197 198 201 204 207 210 212 213 215 216 214 211 210 210 208 205 203
319 308 299 288 274 262 253 245 238 232 229 228 228 227 228 231 233 231 224 212 198 188 185 183 186 189 191 191 194 198 202 205 206 208 209 208 204 203 202 200 198 198 198
334 323 310 297 277 255 240 228 223 219 217 216 213 212 215 219 220 219 212 199 189 180 177 176 178 180 184 186 189 192 195 197 199 201 201 200 198 198 197 195 195 195 195
350 345 335 318 291 239 215 207 202 199 198 195 194 195 200 203 205 201 192 186 180 177 172 169 171 174 177 181 184 186 188 191 193 194 194 193 194 194 193 192 192 192 192
10 10 9 9 25 155 172 174 175 175 176 176 177 180 186 186 181 175 175 174 172 171 166 165 167 171 174 177 181 183 185 187 187 187 187 189 188 187 187 188 188 189 191
23 27 33 45 71 114 139 149 155 159 162 165 167 169 168 165 162 160 162 164 166 168 166 164 166 170 174 176 178 180 182 181 182 183 184 184 184 185 186 186 187 191 195
30 35 42 55 75 100 123 137 145 148 152 156 157 154 151 148 148 150 154 156 159 163 163 164 166 168 172 174 175 175 177 178 181 182 181 182 183 184 185 188 192 196 201
35 40 47 56 72 91 111 126 136 140 143 143 142 140 139 139 140 144 145 149 156 159 159 160 162 165 167 169 169 170 173 176 177 177 179 181 182 184 188 192 197 202 209
38 44 51 62 76 90 103 115 125 130 132 133 134 135 134 133 135 140 144 148 153 156 158 158 159 161 164 165 166 169 171 172 174 176 179 182 185 188 193 198 204 211 218
44 50 58 69 78 88 100 110 118 122 125 127 129 130 132 134 136 140 144 147 148 151 154 156 157 159 161 163 164 167 169 172 175 177 181 185 190 195 201 207 214 222 229
49 56 63 72 81 90 99 108 115 120 123 124 126 127 129 131 135 140 144 145 145 148 151 153 155 158 160 162 164 167 171 174 177 182 187 193 199 205 211 218 226 234 241
52 58 66 73 82 90 97 104 111 116 120 122 124 126 128 130 133 138 141 143 144 146 148 151 153 156 159 162 166 170 174 178 183 189 195 202 209 216 223 230 238 245 251
Height
5720 5716 5713 5711 5709 5707 5705 5704 5704 5705 5706 5708 5710 5712 5715 5718 5721 5724 5728 5731 5735 5738 5740 5743 5746 5748 5750 5751 5752 5753 5753 5753 5753 5751 5749 5748 5748 5748 5748 5749 5751 5753 5754
5697 5692 5688 5684 5682 5681 5681 5680 5681 5682 5684 5686 5688 5691 5694 5698 5702 5706 5710 5715 5719 5723 5727 5730 5734 5737 5739 5742 5743 5744 5745 5745 5745 5744 5743 5742 5742 5742 5743 5744 5745 5746 5748
5673 5668 5663 5659 5655 5654 5653 5654 5655 5657 5659 5662 5665 5669 5672 5677 5681 5686 5691 5697 5702 5708 5712 5717 5721 5725 5729 5731 5734 5735 5736 5737 5737 5737 5736 5736 5736 5736 5737 5738 5739 5741 5743
5652 5646 5641 5637 5633 5631 5629 5629 5629 5631 5634 5637 5641 5645 5649 5654 5659 5665 5671 5678 5684 5691 5697 5702 5708 5712 5717 5720 5724 5726 5728 5729 5730 5730 5730 5730 5730 5730 5731 5732 5733 5735 5737
5635 5629 5625 5620 5617 5614 5612 5611 5610 5611 5612 5615 5617 5621 5625 5631 5637 5643 5650 5658 5666 5673 5680 5687 5694 5699 5704 5709 5713 5716 5718 5720 5722 5723 5723 5724 5724 5725 5726 5726 5728 5729 5731
5621 5616 5612 5608 5605 5603 5600 5599 5598 5597 5597 5598 5599 5601 5604 5608 5613 5620 5628 5637 5646 5654 5663 5671 5679 5685 5691 5697 5702 5706 5709 5712 5714 5715 5716 5717 5718 5719 5720 5721 5722 5724 5725
5608 5604 5600 5597 5594 5592 5590 5589 5588 5587 5587 5587 5588 5588 5589 5591 5594 5599 5606 5615 5625 5635 5645 5654 5663 5671 5678 5684 5690 5695 5699 5702 5706 5708 5709 5711 5712 5713 5714 5715 5717 5718 5720
5595 5591 5587 5584 5582 5580 5579 5578 5577 5577 5577 5577 5577 5578 5578 5578 5580 5583 5587 5595 5604 5615 5626 5636 5647 5656 5665 5672 5679 5684 5689 5693 5697 5700 5702 5704 5706 5707 5709 5710 5711 5713 5715
5580 5576 5573 5570 5568 5567 5566 5565 5565 5565 5565 5566 5566 5567 5567 5568 5569 5571 5573 5579 5586 5596 5607 5619 5630 5641 5651 5660 5667 5674 5680 5684 5689 5692 5695 5697 5699 5701 5703 5704 5706 5708 5709
5563 5559 5556 5554 5552 5551 5551 5551 5552 5552 5553 5554 5555 5556 5556 5557 5558 5560 5562 5566 5572 5580 5591 5603 5615 5626 5637 5647 5656 5663 5670 5676 5680 5684 5688 5690 5693 5695 5697 5699 5701 5703 5705
5544 5541 5539 5537 5535 5535 5535 5536 5537 5539 5540 5542 5543 5545 5546 5547 5548 5549 5551 5555 5559 5567 5577 5588 5600 5612 5625 5635 5645 5653 5660 5667 5672 5677 5680 5683 5686 5688 5691 5693 5695 5698 5700
5525 5522 5520 5519 5518 5518 5519 5521 5523 5525 5527 5530 5532 5534 5536 5537 5539 5540 5541 5545 5549 5556 5565 5576 5588 5600 5613 5624 5634 5643 5651 5658 5664 5669 5673 5676 5679 5682 5685 5688 5690 5693 5696
5507 5504 5502 5501 5501 5502 5504 5506 5509 5512 5515 5519 5522 5524 5526 5528 5530 5531 5533 5536 5541 5547 5556 5567 5579 5591 5603 5614 5624 5634 5643 5650 5657 5662 5666 5670 5674 5677 5680 5682 5685 5688 5691
5492 5489 5486 5486 5486 5487 5489 5493 5496 5500 5504 5508 5512 5516 5518 5520 5522 5524 5526 5529 5534 5540 5549 5559 5570 5582 5594 5605 5616 5626 5635 5643 5649 5655 5660 5664 5668 5671 5674 5678 5681 5684 5687
5479 5476 5473 5472 5473 5475 5477 5481 5485 5490 5495 5499 5504 5508 5511 5514 5516 5518 5520 5524 5528 5534 5543 5553 5564 5575 5587 5598 5609 5619 5628 5636 5643 5648 5654 5658 5662 5666 5670 5673 5677 5680 5684
5470 5466 5464 5463 5463 5465 5468 5472 5476 5482 5487 5492 5497 5501 5505 5508 5510 5513 5515 5519 5524 5530 5538 5548 5559 5570 5582 5593 5604 5614 5622 5630 5637 5643 5648 5653 5657 5662 5666 5669 5673 5677 5681
5465 5461 5458 5457 5457 5458 5461 5465 5470 5476 5481 5487 5492 5497 5501 5504 5506 5509 5512 5516 5521 5528 5537 5547 5557 5568 5579 5590 5600 5609 5618 5625 5632 5638 5643 5648 5653 5658 5662 5667 5671 5675 5678
5463 5458 5456 5455 5455 5456 5459 5463 5467 5473 5478 5484 5490 5494 5498 5501 5504 5507 5510 5515 5520 5527 5537 5547 5557 5567 5578 5589 5598 5606 5614 5621 5628 5634 5639 5645 5650 5655 5660 5664 5668 5672 5676
5465 5460 5457 5456 5456 5458 5460 5463 5468 5473 5478 5484 5489 5494 5497 5500 5503 5506 5510 5515 5521 5529 5539 5549 5559 5569 5578 5588 5596 5604 5612 5618 5625 5631 5637 5643 5648 5652 5657 5662 5666 5670 5674
5471 5466 5462 5460 5460 5461 5463 5467 5471 5475 5480 5485 5490 5494 5497 5501 5504 5508 5513 5518 5525 5534 5543 5552 5561 5570 5579 5587 5596 5603 5610 5617 5623 5630 5635 5641 5646 5651 5655 5660 5664 5668 5672
5479 5474 5470 5467 5466 5466 5468 5471 5475 5479 5484 5488 5492 5496 5499 5503 5508 5512 5517 5523 5530 5539 5547 5556 5564 5572 5581 5588 5596 5603 5610 5616 5623 5629 5634 5639 5644 5649 5654 5658 5662 5666 5669
5487 5483 5479 5475 5474 5473 5474 5477 5480 5484 5488 5492 5496 5500 5504 5508 5512 5517 5523 5530 5537 5544 5552 5560 5568 5575 5583 5590 5597 5604 5610 5617 5623 5628 5634 5639 5644 5648 5653 5657 5660 5663 5666
5497 5492 5488 5485 5483 5482 5483 5484 5487 5491 5494 5498 5502 5506 5510 5514 5519 5525 5531 5537 5544 5551 5558 5565 5572 5579 5586 5593 5599 5605 5611 5617 5623 5629 5634 5639 5643 5647 5651 5655 5658 5660 5663
5507 5502 5498 5495 5493 5492 5493 5494 5496 5499 5502 5506 5510 5513 5517 5522 5527 5532 5538 5544 5551 5557 5564 5571 5577 5584 5590 5596 5602 5607 5613 5619 5624 5629 5634 5638 5642 5646 5649 5652 5655 5657 5658
5518 5513 5509 5506 5505 5504 5504 5505 5506 5509 5512 5515 5518 5522 5526 5531 5536 5541 5547 5552 5559 5565 5571 5577 5583 5588 5594 5600 5605 5610 5616 5620 5625 5630 5634 5638 5641 5644 5647 5649 5651 5653 5654
5530 5525 5521 5518 5516 5516 5515 5516 5517 5520 5522 5525 5529 5532 5536 5540 5545 5550 5555 5561 5567 5572 5578 5583 5588 5593 5598 5604 5608 5613 5618 5622 5626 5630 5633 5637 5639 5642 5644 5645 5647 5648 5648